Location: Elaine Barite Prospect
(34.1431°N, 106.7922°W)
Time: 12:41:57
(UTC+00:00)

NOSS 2-1 (E) - Pass Details

Date: 13 December 2025
Orbit: 385 x 1749 km, 63.3° (Epoch: 7 May)

Event Time Altitude Azimuth Distance (km) Brightness Sun altitude
Exits shadow 12:29:42 37° 261° (W) 1,044 4.2 -19.0°
Maximum altitude 12:30:21 39° 241° (WSW) 1,037 4.3 -18.9°
Drops below altitude 10° 12:35:36 10° 174° (S) 2,537 7.0 -17.9°
Sets 12:38:43 0° 167° (SSE) 3,716 8.0 -17.2°
